Starlink 2435

operational
NORAD ID: 47843 Int'l Des: 2021-018 Owner: SPXS Country: US Constellation: starlink
LEOCIRCULARSTARLINK_TYPE

About Starlink 2435

Description loading...

Live Position

Loading 3D Globe...

Upcoming Passes

Altitude History

Altitude vs Time

uPlot chart will show altitude changes over time

Two-Line Element Set

1 47843U 21018BJ 25260.13498676 -.00000820 00000-0 -36153-4 0 9991
2 47843 53.0552 315.7392 0001558 84.2326 275.8840 15.06389981250384
Epoch: Sep 17, 2025 • Age: 24 hours

Current Status

Altitude 547.6 km
Velocity 7.59 km/s
Sub-Earth Point 25.19°N, 74.45°W
Launch Date Mar 11, 2021
Age 4.5 years
Type internet

Technical Details

Classification Payload
Mass 260.00 kg
Dry Mass 248.00 kg
Total Mass 260.00 kg
Length 0.20 m
Diameter 2.80 m
Span 9.00 m
Shape Box + pan
Manufacturer SPXS
Bus Type Starlink
Phase Status In Orbit
Owner/State SPXS/US

Large Constellations

Loading constellations...